INTELSAT 15 (IS-15)

Last updated on Thu Oct 30 2025 00:02:48 GMT+0000 (Coordinated Universal Time)

1 36106U 09067A 25302.34523705 -.00000175 00000+0 00000+0 0 9991 2 36106 0.0190 272.5253 0002177 297.7968 37.0703 1.00270900 38919
UTC large
Height (km)
Speed (km/s)
/
Latitude / Longitude
Inclination (degrees)
Orbital Period (minutes)
Azimuth
Elevation
Range (km)
Doppler Factor

Next 0 passes for location: London (51.5072 / 0.1276)

Sorry there are no passes over London.